| time (UTC) | temp F | wind direction | speed MPH | gust MPH | rain 1hr in | rain 24hr in | rain mn in | humidity % | barometer mb |
| 20260510213046 | 57 | 301 | 12.0 | 17.0 | 0.00 | 0.00 | 0.00 | 34 | 1017.7 |
| 20260510211537 | 58 | 295 | 12.0 | 18.0 | 0.00 | 0.00 | 0.00 | 34 | 1017.5 |
| 20260510210037 | 58 | 274 | 13.0 | 19.0 | 0.00 | 0.00 | 0.00 | 33 | 1017.3 |
| 20260510204528 | 59 | 290 | 9.0 | 18.0 | 0.00 | 0.00 | 0.00 | 33 | 1017.2 |
| 20260510203025 | 58 | 306 | 12.0 | 17.0 | 0.00 | 0.00 | 0.00 | 35 | 1017.2 |
| 20260510201518 | 58 | 288 | 9.0 | 18.0 | 0.00 | 0.00 | 0.00 | 33 | 1017.4 |
| 20260510200015 | 58 | 254 | 7.0 | 19.0 | 0.00 | 0.00 | 0.00 | 32 | 1017.5 |
| 20260510194509 | 58 | 290 | 12.0 | 18.0 | 0.00 | 0.00 | 0.00 | 33 | 1017.5 |
| 20260510193006 | 57 | 302 | 11.0 | 18.0 | 0.00 | 0.00 | 0.00 | 32 | 1017.6 |
| 20260510191501 | 58 | 260 | 9.0 | 15.0 | 0.00 | 0.00 | 0.00 | 31 | 1017.6 |
| 20260510190108 | 58 | 267 | 8.0 | 14.0 | 0.00 | 0.00 | 0.00 | 31 | 1017.5 |
| 20260510184615 | 58 | 279 | 7.0 | 18.0 | 0.00 | 0.00 | 0.00 | 31 | 1017.5 |
| 20260510183048 | 58 | 299 | 6.0 | 16.0 | 0.00 | 0.00 | 0.00 | 32 | 1017.4 |
| 20260510181556 | 58 | 275 | 7.0 | 21.0 | 0.00 | 0.00 | 0.00 | 31 | 1017.3 |
| 20260510180054 | 57 | 269 | 9.0 | 21.0 | 0.00 | 0.00 | 0.00 | 31 | 1017.2 |
| 20260510174534 | 59 | 255 | 13.0 | 21.0 | 0.00 | 0.00 | 0.00 | 31 | 1017.3 |
| 20260510173029 | 57 | 254 | 9.0 | 20.0 | 0.00 | 0.00 | 0.00 | 30 | 1017.3 |
| 20260510171527 | 56 | 269 | 9.0 | 15.0 | 0.00 | 0.00 | 0.00 | 33 | 1017.4 |
| 20260510170021 | 56 | 223 | 6.0 | 14.0 | 0.00 | 0.00 | 0.00 | 35 | 1017.4 |
| 20260510164515 | 56 | 279 | 11.0 | 16.0 | 0.00 | 0.00 | 0.00 | 36 | 1017.5 |
| 20260510163011 | 55 | 298 | 10.0 | 20.0 | 0.00 | 0.00 | 0.00 | 35 | 1017.5 |
| 20260510161511 | 55 | 279 | 8.0 | 12.0 | 0.00 | 0.00 | 0.00 | 39 | 1017.6 |
| 20260510160003 | 54 | 286 | 6.0 | 17.0 | 0.00 | 0.00 | 0.00 | 38 | 1017.6 |
| 20260510154622 | 53 | 261 | 9.0 | 15.0 | 0.00 | 0.00 | 0.00 | 40 | 1017.5 |
| 20260510153102 | 54 | 337 | 7.0 | 13.0 | 0.00 | 0.00 | 0.00 | 40 | 1017.3 |
| 20260510151549 | 53 | 298 | 11.0 | 17.0 | 0.00 | 0.00 | 0.00 | 40 | 1017.1 |
| 20260510144559 | 51 | 318 | 6.0 | 15.0 | 0.00 | 0.00 | 0.00 | 44 | 1017.0 |
| 20260510143036 | 51 | 270 | 5.0 | 13.0 | 0.00 | 0.00 | 0.00 | 44 | 1016.9 |
| 20260510141532 | 50 | 278 | 5.0 | 11.0 | 0.00 | 0.00 | 0.00 | 46 | 1016.9 |
| 20260510140027 | 50 | 286 | 6.0 | 12.0 | 0.00 | 0.00 | 0.00 | 47 | 1016.8 |
| 20260510134523 | 49 | 298 | 3.0 | 9.0 | 0.00 | 0.00 | 0.00 | 50 | 1016.7 |
| 20260510133020 | 48 | 267 | 5.0 | 8.0 | 0.00 | 0.00 | 0.00 | 52 | 1016.7 |
| 20260510131514 | 47 | 217 | 5.0 | 8.0 | 0.00 | 0.00 | 0.00 | 57 | 1016.6 |
| 20260510130010 | 47 | 232 | 4.0 | 7.0 | 0.00 | 0.00 | 0.00 | 59 | 1016.4 |
| 20260510124505 | 46 | 230 | 2.0 | 5.0 | 0.00 | 0.00 | 0.00 | 65 | 1016.3 |
| 20260510123002 | 45 | 242 | 3.0 | 6.0 | 0.00 | 0.00 | 0.00 | 68 | 1016.2 |
| 20260510121559 | 43 | 265 | 2.0 | 5.0 | 0.00 | 0.00 | 0.00 | 68 | 1016.0 |
| 20260510120052 | 42 | 252 | 2.0 | 5.0 | 0.00 | 0.00 | 0.00 | 66 | 1015.7 |
| 20260510114548 | 41 | 209 | 2.0 | 4.0 | 0.00 | 0.00 | 0.00 | 57 | 1015.5 |
| 20260510113043 | 39 | 209 | 1.0 | 5.0 | 0.00 | 0.00 | 0.00 | 39 | 1015.4 |
| 20260510111545 | 37 | 153 | 0.0 | 0.0 | 0.00 | 0.00 | 0.00 | 100 | 1015.3 |
| 20260510110035 | 35 | 153 | 1.0 | 2.0 | 0.00 | 0.00 | 0.00 | 10 | 1015.1 |
| 20260510104539 | 34 | 153 | 2.0 | 3.0 | 0.00 | 0.00 | 0.00 | 18 | 1014.8 |
| 20260510103026 | 33 | 153 | 2.0 | 3.0 | 0.00 | 0.00 | 0.00 | 26 | 1014.6 |
| 20260510101523 | 34 | 153 | 0.0 | 2.0 | 0.00 | 0.00 | 0.00 | 34 | 1014.2 |
| 20260510100022 | 34 | 153 | 2.0 | 3.0 | 0.00 | 0.00 | 0.00 | 30 | 1014.0 |
| 20260510094519 | 34 | 153 | 2.0 | 3.0 | 0.00 | 0.00 | 0.00 | 33 | 1013.8 |
| 20260510093017 | 34 | 153 | 1.0 | 3.0 | 0.00 | 0.00 | 0.00 | 36 | 1013.7 |
| 20260510091524 | 34 | 153 | 1.0 | 3.0 | 0.00 | 0.00 | 0.00 | 41 | 1013.6 |
| 20260510090011 | 34 | 153 | 2.0 | 3.0 | 0.00 | 0.00 | 0.00 | 48 | 1013.4 |
| 20260510084520 | 35 | 153 | 1.0 | 2.0 | 0.00 | 0.00 | 0.00 | 54 | 1013.1 |
| 20260510083005 | 35 | 153 | 2.0 | 3.0 | 0.00 | 0.00 | 0.00 | 57 | 1012.9 |
| 20260510081501 | 36 | 153 | 0.0 | 2.0 | 0.00 | 0.00 | 0.00 | 62 | 1012.7 |
| 20260510080105 | 37 | 153 | 1.0 | 2.0 | 0.00 | 0.00 | 0.00 | 65 | 1012.5 |
| 20260510074554 | 37 | 153 | 2.0 | 3.0 | 0.00 | 0.00 | 0.00 | 69 | 1012.3 |
| 20260510073052 | 38 | 153 | 0.0 | 4.0 | 0.00 | 0.00 | 0.00 | 69 | 1012.1 |
| 20260510071547 | 40 | 355 | 0.0 | 2.0 | 0.00 | 0.00 | 0.00 | 66 | 1012.0 |
| 20260510070043 | 42 | 355 | 2.0 | 7.0 | 0.00 | 0.00 | 0.00 | 63 | 1012.0 |
| 20260510064539 | 43 | 351 | 6.0 | 10.0 | 0.00 | 0.00 | 0.00 | 61 | 1011.7 |
| 20260510063037 | 42 | 355 | 5.0 | 8.0 | 0.00 | 0.00 | 0.00 | 62 | 1011.7 |
| 20260510061535 | 44 | 355 | 5.0 | 8.0 | 0.00 | 0.00 | 0.00 | 58 | 1011.5 |
| 20260510060038 | 46 | 10 | 6.0 | 12.0 | 0.00 | 0.00 | 0.00 | 55 | 1011.2 |
| 20260510054528 | 45 | 11 | 6.0 | 11.0 | 0.00 | 0.00 | 0.00 | 57 | 1010.9 |
| 20260510053025 | 45 | 19 | 5.0 | 9.0 | 0.00 | 0.00 | 0.00 | 58 | 1010.7 |
| 20260510051522 | 46 | 5 | 3.0 | 5.0 | 0.00 | 0.00 | 0.00 | 58 | 1010.4 |
| 20260510050018 | 47 | 5 | 3.0 | 8.0 | 0.00 | 0.00 | 0.00 | 55 | 1010.1 |
| 20260510044516 | 48 | 11 | 7.0 | 12.0 | 0.00 | 0.00 | 0.00 | 54 | 1009.8 |
| 20260510043012 | 47 | 360 | 7.0 | 10.0 | 0.00 | 0.00 | 0.00 | 60 | 1009.5 |
| 20260510041508 | 48 | 355 | 6.0 | 9.0 | 0.00 | 0.00 | 0.00 | 59 | 1009.2 |
| 20260510040005 | 49 | 355 | 8.0 | 13.0 | 0.00 | 0.00 | 0.00 | 58 | 1008.9 |
| 20260510034602 | 44 | 360 | 4.0 | 9.0 | 0.00 | 0.00 | 0.00 | 67 | 1008.6 |
| 20260510033056 | 45 | 335 | 0.0 | 0.0 | 0.00 | 0.00 | 0.00 | 68 | 1008.1 |
| 20260510031601 | 47 | 335 | 0.0 | 0.0 | 0.00 | 0.00 | 0.00 | 65 | 1007.9 |
| 20260510030048 | 48 | 335 | 0.0 | 0.0 | 0.00 | 0.00 | 0.00 | 60 | 1007.7 |
| 20260510024543 | 49 | 335 | 0.0 | 0.0 | 0.00 | 0.00 | 0.00 | 61 | 1007.6 |
| 20260510023043 | 50 | 335 | 0.0 | 3.0 | 0.00 | 0.00 | 0.00 | 57 | 1007.2 |
| 20260510021536 | 52 | 335 | 2.0 | 5.0 | 0.00 | 0.00 | 0.00 | 54 | 1007.1 |
| 20260510020030 | 54 | 322 | 5.0 | 8.0 | 0.00 | 0.00 | 0.00 | 52 | 1006.8 |
| 20260510014524 | 55 | 317 | 7.0 | 12.0 | 0.00 | 0.00 | 0.00 | 51 | 1006.4 |
| 20260510013020 | 56 | 309 | 7.0 | 12.0 | 0.00 | 0.00 | 0.00 | 50 | 1006.0 |
| 20260510011516 | 57 | 336 | 8.0 | 16.0 | 0.00 | 0.00 | 0.00 | 49 | 1005.6 |
| 20260510010011 | 58 | 298 | 11.0 | 16.0 | 0.00 | 0.00 | 0.00 | 45 | 1005.1 |
| 20260510004508 | 59 | 317 | 12.0 | 21.0 | 0.00 | 0.00 | 0.00 | 43 | 1004.6 |
| 20260510003003 | 60 | 328 | 11.0 | 19.0 | 0.00 | 0.00 | 0.00 | 43 | 1004.3 |
| 20260510001559 | 60 | 313 | 11.0 | 14.0 | 0.00 | 0.00 | 0.00 | 43 | 1004.0 |
| 20260510000054 | 62 | 335 | 12.0 | 20.0 | 0.00 | 0.00 | 0.00 | 40 | 1003.6 |
| 20260509234549 | 63 | 300 | 13.0 | 19.0 | 0.00 | 0.00 | 0.00 | 38 | 1003.3 |
| 20260509233045 | 63 | 306 | 13.0 | 22.0 | 0.00 | 0.00 | 0.00 | 38 | 1002.9 |
| 20260509231546 | 64 | 315 | 13.0 | 18.0 | 0.00 | 0.00 | 0.00 | 39 | 1002.6 |
| 20260509230040 | 66 | 305 | 11.0 | 17.0 | 0.00 | 0.00 | 0.00 | 37 | 1002.4 |
| 20260509224531 | 66 | 283 | 13.0 | 22.0 | 0.00 | 0.00 | 0.00 | 37 | 1002.2 |
| 20260509223027 | 66 | 281 | 12.0 | 18.0 | 0.00 | 0.00 | 0.00 | 37 | 1002.1 |
| 20260509221523 | 67 | 284 | 15.0 | 24.0 | 0.00 | 0.00 | 0.00 | 36 | 1002.1 |
| 20260509220021 | 66 | 280 | 15.0 | 24.0 | 0.00 | 0.00 | 0.00 | 36 | 1002.1 |
| 20260509214513 | 67 | 277 | 14.0 | 24.0 | 0.00 | 0.00 | 0.00 | 36 | 1001.9 |